sat.trackr.live / text

‹ back to catalog

STARLINK-35543

NORAD 66201 · 2025-243AA

PAYLOAD ACTIVE UNKNOWN

§ Identity

Operator
Country
US
Launch date
2025-10-26
Launch site
AFETR
Launch vehicle
Mass (kg)
RCS (m²)

Purposes: comms

External: N2YO · Heavens-Above · Gunter

§ Orbital elements

Epoch: 2026-05-25T00:32:25.492992Z

Period
94.01 min
Inclination
53.1577°
Eccentricity
0.0001356
Mean motion
15.31719723 rev/d
Perigee alt
469.8 km
Apogee alt
471.6 km
Semi-major
6,848.8 km
B*
5.2284e-4
RAAN
250.4804°
Arg perigee
79.0873°
Mean anomaly
281.0281°
Rev number
3,234

§ Raw data

STARLINK-355431 66201U 25243AA  26145.02251728  .00015904  00000+0  52284-3 0  99982 66201  53.1577 250.4804 0001356  79.0873 281.0281 15.31719723 32340

JSON: /api/v1/satellites/66201 · /tle

For live sub-satellite position, see the globe view (requires WebGL).

§ Visibility from observer

Set your observer location to see the next 7 days of passes ≥ 10°. The values pass through the URL so the page stays shareable.

No JS? Fill the form by hand. The geolocation button needs JavaScript.